| time (UTC) | temp F | wind direction | speed MPH | gust MPH | rain 1hr in | rain 24hr in | rain mn in | humidity % | barometer mb |
| 20260507002920 | 62 | 344 | 0.0 | 0.0 | 0.00 | 0.00 | 0.00 | 28 | 974.1 |
| 20260507001910 | 62 | 344 | 0.0 | 0.0 | 0.00 | 0.00 | 0.00 | 30 | 973.6 |
| 20260507000901 | 62 | 344 | 0.0 | 0.0 | 0.00 | 0.00 | 0.00 | 31 | 973.7 |
| 20260506235840 | 62 | 344 | 0.0 | 0.0 | 0.00 | 0.00 | 0.00 | 33 | 974.0 |
| 20260506234853 | 62 | 344 | 0.0 | 0.0 | 0.00 | 0.00 | 0.00 | 36 | 973.6 |
| 20260506233834 | 62 | 344 | 0.0 | 0.0 | 0.00 | 0.00 | 0.00 | 33 | 973.9 |
| 20260506232850 | 62 | 344 | 0.0 | 0.0 | 0.00 | 0.00 | 0.00 | 36 | 973.4 |
| 20260506230709 | 62 | 344 | 0.0 | 0.0 | 0.00 | 0.00 | 0.00 | 33 | 973.5 |
| 20260506225651 | 62 | 344 | 0.0 | 0.0 | 0.00 | 0.00 | 0.00 | 33 | 973.3 |
| 20260506224708 | 62 | 343 | 0.0 | 0.0 | 0.00 | 0.00 | 0.00 | 27 | 973.7 |
| 20260506222519 | 62 | 342 | 0.0 | 0.0 | 0.00 | 0.00 | 0.00 | 30 | 973.4 |
| 20260506221452 | 61 | 341 | 0.0 | 0.0 | 0.00 | 0.00 | 0.00 | 32 | 973.4 |
| 20260506220445 | 61 | 341 | 0.0 | 0.0 | 0.00 | 0.00 | 0.00 | 35 | 973.4 |
| 20260506215447 | 61 | 340 | 0.0 | 1.0 | 0.00 | 0.00 | 0.00 | 44 | 973.6 |
| 20260506214509 | 62 | 340 | 0.0 | 1.0 | 0.00 | 0.00 | 0.00 | 50 | 973.4 |
| 20260506213534 | 62 | 331 | 0.0 | 0.0 | 0.00 | 0.00 | 0.00 | 50 | 973.3 |
| 20260506212522 | 63 | 13 | 0.0 | 0.0 | 0.00 | 0.00 | 0.00 | 51 | 973.3 |
| 20260506211545 | 63 | 13 | 0.0 | 0.0 | 0.00 | 0.00 | 0.00 | 53 | 973.5 |
| 20260506210547 | 64 | 13 | 0.0 | 0.0 | 0.00 | 0.00 | 0.00 | 58 | 973.6 |
| 20260506205546 | 64 | 13 | 0.0 | 0.0 | 0.00 | 0.00 | 0.00 | 59 | 973.7 |
| 20260506203349 | 65 | 14 | 0.0 | 0.0 | 0.00 | 0.00 | 0.00 | 61 | 973.8 |
| 20260506202403 | 68 | 14 | 0.0 | 0.0 | 0.00 | 0.00 | 0.00 | 62 | 973.8 |
| 20260506201427 | 69 | 13 | 0.0 | 0.0 | 0.00 | 0.00 | 0.00 | 61 | 973.7 |
| 20260506200413 | 71 | 9 | 0.0 | 0.0 | 0.00 | 0.00 | 0.00 | 60 | 973.7 |
| 20260506195430 | 70 | 5 | 0.0 | 0.0 | 0.00 | 0.00 | 0.00 | 59 | 973.5 |
| 20260506194455 | 69 | 5 | 0.0 | 0.0 | 0.00 | 0.00 | 0.00 | 59 | 973.4 |
| 20260506193450 | 68 | 5 | 0.0 | 0.0 | 0.00 | 0.00 | 0.00 | 58 | 973.4 |
| 20260506191354 | 70 | 17 | 0.0 | 0.0 | 0.00 | 0.00 | 0.00 | 59 | 973.5 |
| 20260506190325 | 71 | 17 | 0.0 | 0.0 | 0.00 | 0.00 | 0.00 | 60 | 973.6 |
| 20260506185345 | 74 | 17 | 0.0 | 0.0 | 0.00 | 0.00 | 0.00 | 60 | 973.6 |
| 20260506184322 | 76 | 19 | 0.0 | 0.0 | 0.00 | 0.00 | 0.00 | 59 | 973.2 |
| 20260506183342 | 77 | 161 | 0.0 | 0.0 | 0.00 | 0.00 | 0.00 | 59 | 973.1 |
| 20260506181219 | 75 | 165 | 0.0 | 0.0 | 0.00 | 0.00 | 0.00 | 54 | 973.1 |
| 20260506180208 | 75 | 165 | 0.0 | 0.0 | 0.00 | 0.00 | 0.00 | 47 | 973.2 |
| 20260506175139 | 73 | 167 | 0.0 | 0.0 | 0.00 | 0.00 | 0.00 | 52 | 972.9 |
| 20260506174159 | 73 | 160 | 0.0 | 1.0 | 0.00 | 0.00 | 0.00 | 49 | 972.6 |
| 20260506173217 | 72 | 155 | 0.0 | 0.0 | 0.00 | 0.00 | 0.00 | 30 | 972.7 |
| 20260506172234 | 71 | 161 | 0.0 | 0.0 | 0.00 | 0.00 | 0.00 | 34 | 972.7 |
| 20260506170149 | 69 | 146 | 0.0 | 0.0 | 0.00 | 0.00 | 0.00 | 16 | 972.6 |
| 20260506165123 | 68 | 145 | 0.0 | 1.0 | 0.00 | 0.00 | 0.00 | 1 | 973.0 |
| 20260506164110 | 68 | 216 | 0.0 | 4.0 | 0.00 | 0.00 | 0.00 | 1 | 972.7 |
| 20260506163051 | 66 | 88 | 0.0 | 0.0 | 0.00 | 0.00 | 0.00 | 1 | 973.3 |
| 20260506160941 | 63 | 155 | 0.0 | 2.0 | 0.00 | 0.00 | 0.00 | 1 | 973.9 |
| 20260506155918 | 64 | 5 | 0.0 | 0.0 | 0.00 | 0.00 | 0.00 | 1 | 974.3 |
| 20260506154900 | 65 | 29 | 0.0 | 0.0 | 0.00 | 0.00 | 0.00 | 1 | 974.1 |
| 20260506153901 | 66 | 308 | 0.0 | 1.0 | 0.00 | 0.00 | 0.00 | 1 | 973.8 |
| 20260506152916 | 67 | 350 | 0.0 | 0.0 | 0.00 | 0.00 | 0.00 | 1 | 974.0 |
| 20260506151921 | 67 | 328 | 0.0 | 2.0 | 0.00 | 0.00 | 0.00 | 1 | 973.8 |
| 20260506150857 | 68 | 350 | 0.0 | 0.0 | 0.00 | 0.00 | 0.00 | 1 | 973.5 |
| 20260506145906 | 70 | 347 | 0.0 | 0.0 | 0.00 | 0.00 | 0.00 | 11 | 973.2 |
| 20260506144930 | 72 | 340 | 0.0 | 0.0 | 0.00 | 0.00 | 0.00 | 26 | 972.7 |
| 20260506143947 | 76 | 343 | 0.0 | 1.0 | 0.00 | 0.00 | 0.00 | 25 | 972.1 |
| 20260506135620 | 78 | 257 | 0.0 | 0.0 | 0.00 | 0.00 | 0.00 | 1 | 971.6 |
| 20260506134606 | 77 | 257 | 0.0 | 0.0 | 0.00 | 0.00 | 0.00 | 1 | 971.2 |
| 20260506133622 | 77 | 257 | 0.0 | 0.0 | 0.00 | 0.00 | 0.00 | 1 | 970.9 |
| 20260506132550 | 76 | 257 | 0.0 | 0.0 | 0.00 | 0.00 | 0.00 | 1 | 971.0 |
| 20260506131529 | 76 | 257 | 0.0 | 0.0 | 0.00 | 0.00 | 0.00 | 1 | 970.9 |
| 20260506125334 | 75 | 257 | 0.0 | 0.0 | 0.00 | 0.00 | 0.00 | 1 | 970.7 |
| 20260506124332 | 75 | 257 | 0.0 | 0.0 | 0.00 | 0.00 | 0.00 | 1 | 970.6 |
| 20260506123333 | 75 | 257 | 0.0 | 0.0 | 0.00 | 0.00 | 0.00 | 1 | 970.4 |
| 20260506122315 | 75 | 257 | 0.0 | 0.0 | 0.00 | 0.00 | 0.00 | 1 | 970.3 |
| 20260506121329 | 75 | 257 | 0.0 | 0.0 | 0.00 | 0.00 | 0.00 | 1 | 970.3 |
| 20260506120318 | 75 | 257 | 0.0 | 0.0 | 0.00 | 0.00 | 0.00 | 1 | 970.4 |
| 20260506114122 | 75 | 257 | 0.0 | 0.0 | 0.00 | 0.00 | 0.00 | 1 | 970.3 |
| 20260506113143 | 76 | 257 | 0.0 | 0.0 | 0.00 | 0.00 | 0.00 | 1 | 970.5 |
| 20260506112119 | 76 | 257 | 0.0 | 0.0 | 0.00 | 0.00 | 0.00 | 1 | 970.6 |
| 20260506111123 | 76 | 257 | 0.0 | 0.0 | 0.00 | 0.00 | 0.00 | 1 | 970.7 |
| 20260506110139 | 76 | 257 | 0.0 | 0.0 | 0.00 | 0.00 | 0.00 | 1 | 970.5 |
| 20260506105117 | 76 | 257 | 0.0 | 0.0 | 0.00 | 0.00 | 0.00 | 1 | 970.5 |
| 20260506104109 | 76 | 257 | 0.0 | 0.0 | 0.00 | 0.00 | 0.00 | 1 | 970.4 |
| 20260506103127 | 76 | 257 | 0.0 | 0.0 | 0.00 | 0.00 | 0.00 | 1 | 970.3 |
| 20260506102133 | 76 | 257 | 0.0 | 0.0 | 0.00 | 0.00 | 0.00 | 1 | 970.2 |
| 20260506101130 | 76 | 257 | 0.0 | 0.0 | 0.00 | 0.00 | 0.00 | 1 | 970.2 |
| 20260506100148 | 76 | 257 | 0.0 | 0.0 | 0.00 | 0.00 | 0.00 | 1 | 970.0 |
| 20260506094010 | 76 | 257 | 0.0 | 2.0 | 0.00 | 0.00 | 0.00 | 1 | 969.8 |
| 20260506092952 | 76 | 257 | 0.0 | 0.0 | 0.00 | 0.00 | 0.00 | 1 | 969.6 |
| 20260506091922 | 76 | 254 | 0.0 | 1.0 | 0.00 | 0.00 | 0.00 | 1 | 969.5 |
| 20260506090926 | 76 | 256 | 0.0 | 2.0 | 0.00 | 0.00 | 0.00 | 1 | 969.4 |
| 20260506085854 | 76 | 259 | 0.0 | 0.0 | 0.00 | 0.00 | 0.00 | 1 | 969.2 |
| 20260506084858 | 76 | 264 | 0.0 | 0.0 | 0.00 | 0.00 | 0.00 | 1 | 969.2 |
| 20260506082726 | 76 | 246 | 0.0 | 4.0 | 0.00 | 0.00 | 0.00 | 1 | 969.3 |
| 20260506081701 | 76 | 249 | 0.0 | 2.0 | 0.00 | 0.00 | 0.00 | 1 | 969.2 |
| 20260506072533 | 76 | 269 | 0.0 | 0.0 | 0.00 | 0.00 | 0.00 | 1 | 969.6 |
| 20260506071534 | 76 | 271 | 0.0 | 8.0 | 0.00 | 0.00 | 0.00 | 1 | 969.8 |
| 20260506070532 | 76 | 257 | 0.0 | 3.0 | 0.00 | 0.00 | 0.00 | 1 | 969.6 |
| 20260506062432 | 76 | 244 | 0.0 | 7.0 | 0.00 | 0.00 | 0.00 | 1 | 969.5 |
| 20260506061426 | 76 | 238 | 0.0 | 0.0 | 0.00 | 0.00 | 0.00 | 1 | 969.6 |
| 20260506060437 | 76 | 262 | 0.0 | 0.0 | 0.00 | 0.00 | 0.00 | 1 | 969.5 |
| 20260506045041 | 77 | 239 | 0.0 | 4.0 | 0.00 | 0.00 | 0.00 | 1 | 969.6 |
| 20260506041732 | 77 | 226 | 0.0 | 0.0 | 0.00 | 0.00 | 0.00 | 1 | 969.5 |
| 20260506040755 | 77 | 226 | 0.0 | 3.0 | 0.00 | 0.00 | 0.00 | 1 | 969.5 |
| 20260506035757 | 77 | 225 | 0.0 | 0.0 | 0.00 | 0.00 | 0.00 | 1 | 969.3 |
| 20260506034730 | 77 | 225 | 0.0 | 1.0 | 0.00 | 0.00 | 0.00 | 1 | 969.3 |
| 20260506033709 | 77 | 225 | 0.0 | 1.0 | 0.00 | 0.00 | 0.00 | 1 | 969.1 |
| 20260506032654 | 76 | 225 | 0.0 | 0.0 | 0.00 | 0.00 | 0.00 | 1 | 969.0 |
| 20260506030453 | 76 | 225 | 0.0 | 0.0 | 0.00 | 0.00 | 0.00 | 1 | 968.9 |
| 20260506023217 | 77 | 225 | 0.0 | 0.0 | 0.00 | 0.00 | 0.00 | 1 | 968.4 |
| 20260506022233 | 77 | 225 | 0.0 | 0.0 | 0.00 | 0.00 | 0.00 | 1 | 968.1 |
| 20260506021223 | 77 | 225 | 0.0 | 0.0 | 0.00 | 0.00 | 0.00 | 1 | 968.0 |
| 20260506020232 | 77 | 225 | 0.0 | 0.0 | 0.00 | 0.00 | 0.00 | 5 | 967.9 |
| 20260506015244 | 77 | 225 | 0.0 | 0.0 | 0.00 | 0.00 | 0.00 | 10 | 967.7 |
| 20260506014213 | 77 | 229 | 0.0 | 0.0 | 0.00 | 0.00 | 0.00 | 19 | 967.5 |
| 20260506013158 | 78 | 229 | 0.0 | 0.0 | 0.00 | 0.00 | 0.00 | 30 | 967.6 |
| 20260506012137 | 78 | 229 | 0.0 | 0.0 | 0.00 | 0.00 | 0.00 | 38 | 967.7 |
| 20260506011157 | 78 | 229 | 0.0 | 0.0 | 0.00 | 0.00 | 0.00 | 45 | 967.5 |
| 20260506010143 | 79 | 229 | 0.0 | 0.0 | 0.00 | 0.00 | 0.00 | 50 | 967.4 |
| 20260506005152 | 79 | 229 | 0.0 | 0.0 | 0.00 | 0.00 | 0.00 | 53 | 967.5 |
| 20260506004153 | 80 | 228 | 0.0 | 0.0 | 0.00 | 0.00 | 0.00 | 54 | 967.5 |